Location: Kazanice
(53.5528°N, 19.7258°E)
Time: 07:31:06
(UTC+01:00)

ISS - Pass Details

Date: 26 January 2019
Orbit: 403 x 411 km, 51.6° (Epoch: 18 February)

Event Time Altitude Azimuth Distance (km) Brightness Sun altitude
Rises 17:38:22 0° 217° (SW) 2,326 0.9 -12.7°
Reaches altitude 10° 17:40:45 10° 201° (SSW) 1,471 -0.5 -13.0°
Maximum altitude 17:43:20 21° 149° (SSE) 973 -2.1 -13.4°
Enters shadow 17:44:28 18° 120° (ESE) 1,090 -2.1 -13.6°
